Location: Clatteringshaws Loch
(55.0508°N, 4.2860°W)
Time: 07:12:31
(UTC+01:00)

ALOS - Visible Passes

Search period start: 22 September 2014 00:00
Search period end: 02 October 2014 00:00
Orbit: 688 x 690 km, 98.0° (Epoch: 21 September)

Date Brightness Start Highest point End Pass type
(mag) Time Alt. Az. Time Alt. Az. Time Alt. Az.
22 Sep 3.1 20:47:05 21° ESE 20:49:30 34° ENE 20:53:44 10° N visible
22 Sep 3.2 22:25:42 35° SW 22:26:56 43° W 22:31:26 10° NNW visible
23 Sep 4.1 19:48:43 10° E 19:51:13 15° NE 19:53:43 10° NNE visible
23 Sep 2.3 21:26:15 38° SE 21:27:54 65° ENE 21:32:35 10° N visible
23 Sep 4.2 23:04:51 21° WSW 23:05:51 22° W 23:09:30 10° NW visible
24 Sep 3.5 20:26:48 16° E 20:29:20 25° ENE 20:33:08 10° N visible
24 Sep 2.6 22:05:24 48° SSW 22:06:30 63° WSW 22:11:11 10° NNW visible
24 Sep 5.0 23:44:01 10° W 23:44:59 11° W 23:46:08 10° WNW visible
25 Sep 2.6 21:05:57 32° ESE 21:07:38 46° ENE 21:12:07 10° N visible
25 Sep 3.7 22:44:34 30° WSW 22:45:18 31° W 22:49:30 10° NNW visible
26 Sep 3.8 20:06:30 12° E 20:09:12 19° NE 20:12:26 10° N visible
26 Sep 2.2 21:45:06 56° SSE 21:46:07 90° ENE 21:50:51 10° NNW visible
26 Sep 4.6 23:23:43 16° W 23:24:19 16° W 23:27:12 10° NW visible
27 Sep 3.1 20:45:39 25° E 20:47:24 33° ENE 20:51:36 10° N visible
27 Sep 3.1 22:24:16 43° WSW 22:24:49 45° W 22:29:20 10° NNW visible
28 Sep 4.2 19:46:42 10° E 19:49:07 14° NE 19:51:33 10° NNE visible
28 Sep 2.3 21:24:48 50° ESE 21:25:47 63° ENE 21:30:27 10° N visible
28 Sep 4.2 23:03:25 22° W 23:03:43 23° W 23:07:25 10° NW visible
29 Sep 3.5 20:25:21 19° E 20:27:13 24° ENE 20:30:59 10° N visible
29 Sep 2.5 22:03:57 62° SW 22:04:22 65° WSW 22:09:04 10° NNW visible
29 Sep 5.0 23:42:34 11° W 23:42:50 11° W 23:44:13 10° WNW visible
30 Sep 2.7 21:04:29 38° E 21:05:30 44° ENE 21:09:58 10° N visible
30 Sep 3.7 22:43:06 32° W 22:43:09 32° W 22:47:23 10° NNW visible
01 Oct 3.9 20:05:02 14° E 20:07:05 18° NE 20:10:15 10° N visible
01 Oct 2.1 21:43:38 77° SSE 21:43:59 88° ENE 21:48:42 10° NNW visible
01 Oct 4.7 23:22:15 16° W 23:22:15 16° W 23:25:07 10° NW visible
